Terminal Aerodrome Forecast
Issued by NWS Grand Forks, ND

Home | Current Version | Previous Version | Graphics & Text | Print | Product List | Glossary On
Versions: 1 2 3 4 5 6 7 8 9 10 11 12 13 14 15 16 17
000
FTUS43 KFGF 191100
TAFFAR
TAF
KFAR 191139Z 1912/2012 17020KT P6SM BKN130
      TEMPO 1912/1916 -TSRA BKN015CB
     FM191600 19015KT P6SM OVC015
     FM191800 21013KT P6SM BKN040
     FM200000 29014G20KT P6SM BKN080=

USA.gov is the U.S. government's official web portal to all federal, state and local government web resources and services.